星链-1572 (STARLINK-1572 )

导读

STARLINK-1572是美国SpaceX星链计划中的卫星,于2020年8月7日发射升空,属于低轨互联网星座卫星,旨在为全球提供高速低延迟互联网接入服务,服务覆盖偏远地区、海上航行以及航空飞行等场景,是星链星座组网进程中的一员,推进了星链全球覆盖的部署进度。

基本信息
目录编号:
46060
目录名称:
STARLINK-1572
国际标识:
2020-055AK
轨道中心:
EARTH
卫星名称:
星链-1572
卫星全名:
星链-1572 (STARLINK-1572 )
卫星状态:
在轨 (已飞行2228 天)
发射日期:
2020-08-07 UTC
国别 :
美国 (US)
星等 :
--
该卫星已列入 空间交会检测服务 Space Conjunction Data Service (SCDS) ,当前飞行风险评估等级: 无高风险
轨道信息
数据来源 国际轨道数据
星历时间: 2026-09-13T11:41:48+0800
7小时前
查看轨道信息
半长轴: 6848.836km
偏心率: 0.0001202
轨道倾角: 53.159°
近地点辐角 87.032°
升交点赤经 323.055°
平近点角 273.082°
近地点: 469.875km
远地点: 471.523km
周期: 94.012分钟
每日圈数: 15.317138
详细信息
固有亮度:
5
最大亮度:
2.5
卫星平台:
Starlink V1.0
覆盖范围:
全球
运营商:
太空探索技术公司
运营商所在国:
美国
制造商(研发单位):
太空探索技术公司
制造商所在国:
美国
使用方式:
暂无
卫星简介
星链(Starlink)计划是由太空探索技术公司(SpaceX)提出的一个巨型低轨卫星互联网星座项目,计划在2019年至2024年间在太空搭建由约1.2万颗卫星组成的“星链”网络,其中1584颗将部署在地球上空550千米处的近地轨道,并从2020年开始工作。该卫星仍在工作。
2D轨道图
3D轨道图
轨道高度分析图
轨道倾角分析图
轨道综合分析图
查看轨道综合分析图
交会数据列表
事件ID 空间交会对象 最接近时刻(TCA) 交会距离 交会风险概率(CRP) 交会风险指数(CRI) 操作
CDM_260913-130804-606006-666921
SARI-2 (66669)
2026-09-13T
13:08:55+0000
1.443 km
极远距离
4.064834E-6 低风险 0.47
CDM_260915-231204-606006-261321
2026-09-15T
23:12:19+0000
1.663 km
极远距离
2.892244E-6 低风险 0.44
CDM_260913-205004-606006-821421
2026-09-13T
20:50:45+0000
2.798 km
极远距离
1.461335E-6 低风险 0.38
CDM_260915-194204-606006-880921
2026-09-15T
19:42:19+0000
2.783 km
极远距离
1.455574E-6 低风险 0.38
CDM_260915-010304-606006-867921
2026-09-15T
01:03:23+0000
2.819 km
极远距离
1.447193E-6 低风险 0.38
CDM_260913-173804-606006-538321
2026-09-13T
17:38:54+0000
2.859 km
极远距离
1.412065E-6 低风险 0.38
CDM_260915-071204-606006-902921
2026-09-15T
07:12:25+0000
2.889 km
极远距离
1.389242E-6 低风险 0.38
CDM_260906-065204-606006-881321
2026-09-06T
06:52:28+0000
2.711 km
极远距离
1.351588E-6 低风险 0.38
CDM_260913-084304-606006-838721
2026-09-13T
08:43:17+0000
2.978 km
极远距离
1.087073E-6 低风险 0.36
CDM_260915-111004-606006-878521
2026-09-15T
11:10:46+0000
2.798 km
极远距离
8.880782E-7 极低风险 0.34
与全量物体交会距离演化趋势
与全量物体交会风险概率演化趋势